Time,TemperatureF,DewpointF,PressureIn,WindDirection,WindDirectionDegrees,WindSpeedMPH,WindSpeedGustMPH,Humidity,HourlyPrecipIn,Conditions,Clouds,dailyrainin,SoftwareType,DateUTC
2013-07-01 00:00:00,47.0,-99.9,-100.00,North,-999,-999.0,-999.0,-999,-99.99,,,0.02,,2013-07-01 06:00:00,
2013-07-01 02:00:00,46.0,45.0,-100.00,SSE,159,2.0,4.0,96,-99.99,,,0.02,,2013-07-01 08:00:00,
2013-07-01 03:00:00,45.0,-99.9,-100.00,North,-999,-999.0,-999.0,-999,-99.99,,,0.02,,2013-07-01 09:00:00,
2013-07-01 03:53:00,45.0,-99.9,-100.00,North,-999,-999.0,-999.0,-999,-99.99,,,0.02,,2013-07-01 09:53:00,
2013-07-01 04:00:00,45.0,44.0,-100.00,SSE,152,1.0,3.0,97,-99.99,,,0.02,,2013-07-01 10:00:00,
2013-07-01 04:52:00,45.0,44.0,-100.00,SSE,152,1.0,3.0,97,-99.99,,,0.02,,2013-07-01 10:52:00,
2013-07-01 05:00:00,45.0,45.0,-100.00,SSE,154,2.0,3.0,98,-99.99,,,0.02,,2013-07-01 11:00:00,
2013-07-01 05:52:00,45.0,45.0,-100.00,SSE,154,2.0,3.0,98,-99.99,,,0.02,,2013-07-01 11:52:00,
2013-07-01 06:00:00,46.0,45.0,-100.00,SSE,156,2.0,3.0,97,-99.99,,,0.02,,2013-07-01 12:00:00,
2013-07-01 06:53:00,46.0,45.0,-100.00,SSE,156,2.0,3.0,97,-99.99,,,0.02,,2013-07-01 12:53:00,
2013-07-01 07:00:00,45.0,45.0,-100.00,SSE,155,2.0,4.0,97,-99.99,,,0.02,,2013-07-01 13:00:00,
2013-07-01 07:53:00,45.0,45.0,-100.00,SSE,155,2.0,4.0,97,-99.99,,,0.02,,2013-07-01 13:53:00,
2013-07-01 08:00:00,49.0,48.0,-100.00,SSE,159,2.0,3.0,97,-99.99,,,0.02,,2013-07-01 14:00:00,
2013-07-01 09:00:00,56.0,53.0,-100.00,SSE,160,0.0,2.0,91,-99.99,,,0.02,,2013-07-01 15:00:00,
2013-07-01 09:53:00,56.0,53.0,-100.00,SSE,160,0.0,2.0,91,-99.99,,,0.02,,2013-07-01 15:53:00,
2013-07-01 10:00:00,57.0,50.0,-100.00,North,3,0.0,3.0,75,-99.99,,,0.02,,2013-07-01 16:00:00,
2013-07-01 11:00:00,61.0,51.0,-100.00,NNW,343,1.0,4.0,70,-99.99,,,0.02,,2013-07-01 17:00:00,
2013-07-01 12:00:00,63.0,47.0,-100.00,NNW,337,1.0,5.0,56,-99.99,,,0.02,,2013-07-01 18:00:00,
2013-07-01 12:53:00,63.0,47.0,-100.00,NNW,337,1.0,5.0,56,-99.99,,,0.02,,2013-07-01 18:53:00,
2013-07-01 13:00:00,64.0,46.0,-100.00,NNW,330,2.0,6.0,51,-99.99,,,0.02,,2013-07-01 19:00:00,
2013-07-01 14:00:00,58.0,39.0,-100.00,NNE,24,1.0,5.0,49,-99.99,,,0.02,,2013-07-01 20:00:00,
2013-07-01 14:52:00,58.0,39.0,-100.00,NNE,24,1.0,5.0,49,-99.99,,,0.02,,2013-07-01 20:52:00,
2013-07-01 16:00:00,62.0,46.0,-100.00,East,87,2.0,6.0,55,-99.99,,,0.04,,2013-07-01 22:00:00,
2013-07-01 16:53:00,62.0,46.0,-100.00,East,87,2.0,6.0,55,-99.99,,,0.04,,2013-07-01 22:53:00,
2013-07-01 17:00:00,62.0,40.0,-100.00,NNE,24,2.0,8.0,43,-99.99,,,0.02,,2013-07-01 23:00:00,
2013-07-01 18:00:00,60.0,39.0,-100.00,East,84,2.0,6.0,46,-99.99,,,0.02,,2013-07-02 00:00:00,
2013-07-01 19:00:00,56.0,43.0,-100.00,East,99,2.0,4.0,61,-99.99,,,0.02,,2013-07-02 01:00:00,
2013-07-01 20:00:00,54.0,44.0,-100.00,ESE,108,3.0,5.0,69,-99.99,,,0.02,,2013-07-02 02:00:00,
2013-07-01 20:53:00,54.0,44.0,-100.00,ESE,108,3.0,5.0,69,-99.99,,,0.02,,2013-07-02 02:53:00,
2013-07-01 21:00:00,52.0,45.0,-100.00,ESE,118,3.0,5.0,77,-99.99,,,0.02,,2013-07-02 03:00:00,
2013-07-01 22:00:00,52.0,47.0,-100.00,ESE,121,2.0,5.0,82,-99.99,,,0.01,,2013-07-02 04:00:00,
2013-07-01 22:53:00,52.0,47.0,-100.00,ESE,121,2.0,5.0,82,-99.99,,,0.01,,2013-07-02 04:53:00,
2013-07-01 23:00:00,49.0,45.0,-100.00,SE,135,1.0,6.0,87,-99.99,,,0.00,,2013-07-02 05:00:00,
2013-07-01 23:43:00,49.0,45.0,-100.00,SE,135,1.0,6.0,87,-99.99,,,0.00,,2013-07-02 05:43:00,
2013-07-01 23:53:00,49.0,45.0,-100.00,SE,135,1.0,6.0,87,-99.99,,,0.00,,2013-07-02 05:53:00,